www.pogodaiklimat.ru

Погода и климат >> Архив погоды >> Россия >> Камчатский край >> Мыс Озерной


ПОГОДА на Мысе Озерном

  • Прогноз погоды на Мысе Озерном
  • Монитор погоды на Мысе Озерном

АРХИВ ПОГОДЫ на Мысе Озерном

Время (UTC), дата Ветер
(напр.,м/с)
 
Видим.   Явления Облачность Т
(С)
Тd
(С)
f
(%)
Тe
(С)
Тes
(С)
Комфортность P
(гПа)
Po
(гПа)
Тmin
(С)
Tmax
(С)
R
(мм)
R24
(мм)
S
(см)
03 19.04 штиль 0 20 км 3/0
[Ci fib]
+2.3 -2.5 71 +2 +13 опасность
простуды
1025.4 1024.2
06 19.04 штиль 0 20 км ясно +1.9 -2.2 74 +1 +4 1025.2 1024.0
09 19.04 З 1 20 км ясно -0.9 -3.4 83 -3 -3 1025.8 1024.6 +4.2
12 19.04 З 1 20 км ясно -1.7 -3.9 85 -4 -4 1025.7 1024.5
15 19.04 СЗ 4 20 км ясно -2.3 -4.5 85 -8 -8 1025.3 1024.1
18 19.04 З 3 20 км 4/0
[Ci fib]
-3.0 -5.3 84 -8 -8 1025.3 1024.1
21 19.04 З 2 20 км 4/0
[Ci fib]
-0.4 -4.7 73 -4 0 1026.0 1024.8 -3.5 61
00 20.04 штиль 0 20 км 10/0
[Cs]
+3.8 -1.4 69 +3 +14 опасность
простуды
1025.6 1024.4
03 20.04 штиль 0 20 км 10/0
[Cs]
+2.8 -1.4 74 +2 +12 опасность
простуды
1024.8 1023.6
06 20.04 штиль 0 20 км 8/0
[Cs]
+2.9 -1.7 72 +2 +5 1023.1 1021.9
09 20.04 штиль 0 20 км 4/0
[Ci fib]
+0.2 -2.2 84 -1 -1 1023.3 1022.1 +4.7
12 20.04 З 2 20 км 4/0
[Ci fib]
-0.5 -2.9 84 -4 -4 1022.6 1021.4
15 20.04 СЗ 4 20 км 3/0
[Ci fib]
-1.0 -3.5 83 -7 -7 1021.8 1020.6
18 20.04 СЗ 5 20 км 3/0
[Ci fib]
-0.3 -3.7 78 -6 -6 1021.9 1020.7
21 20.04 З 1 20 км ясно +2.8 -2.7 67 +2 +7 1022.8 1021.6 -1.7 60
00 21.04 В 2 50 км 3/0
[Ci fib]
+1.9 -2.6 72 -1 +9 1023.7 1022.5
03 21.04 В 1 50 км 3/1 600 м
[Cu hum Ci fib]
+3.1 -0.7 76 +2 +11 опасность
простуды
1024.1 1023.0
06 21.04 штиль 0 20 км 3/0
[Ci fib]
+3.4 -1.8 69 +3 +6 1024.1 1023.0
09 21.04 З 1 20 км 3/0
[Ci fib]
+0.3 -3.1 78 -2 -2 1025.1 1023.9 +5.8
12 21.04 З 2 20 км 4/0
[Ci fib]
-1.9 -3.6 88 -6 -6 1025.3 1024.1
15 21.04 СЗ 3 20 км ясно -3.9 -5.2 91 -9 -9 1024.9 1023.7
18 21.04 З 3 20 км 3/0
[Ac trans Ci fib]
-5.4 -6.5 92 -11 -11 1024.9 1023.7
21 21.04 З 2 20 км 9/3 300 м
[St Ac trans]
-2.2 -4.9 82 -6 -5 1025.0 1023.8 -5.5 58
00 22.04 В 1 20 км 8/3 300 м
[Sc Ac trans Ci fib]
+1.1 -1.1 85 -1 +5 1024.5 1023.3
03 22.04 ЮВ 2 20 км 8/4 600 м
[Sc Ac trans]
+1.4 -1.5 81 -2 +2 1023.6 1022.4
06 22.04 ЮВ 1 20 км 3/3 600 м
[Sc]
+1.6 -1.3 81 -0 +2 1022.8 1021.6
09 22.04 Ю 1 20 км 3/3 600 м
[Sc]
+0.1 -2.3 84 -2 -2 1022.5 1021.3 +2.9
12 22.04 Ю 2 20 км 10/10 600 м
[Sc]
+1.0 -1.6 83 -2 -2 1022.3 1021.1
15 22.04 Ю 1 20 км 10/10 600 м
[Sc]
+1.0 -2.1 80 -1 -1 1021.6 1020.4
18 22.04 штиль 0 20 км 10/10 300 м
[Sc]
-0.3 -1.1 94 -2 -2 1021.3 1020.1
21 22.04 ЮВ 1 20 км 10/10 300 м
[St]
+0.1 -0.9 93 -2 -2 1021.3 1020.1 -0.6 57
00 23.04 СВ 1 10 км слаб. снег 10/10 300 м
[Frnb Ns]
+0.7 -0.9 89 -1 -1 1021.0 1019.8
03 23.04 В 1 20 км {снег} 10/10 300 м
[Sc]
+1.4 -0.7 86 -0 -0 1020.1 1018.9
06 23.04 штиль 0 10 км {снег} 10/10 300 м
[St]
+0.3 -1.1 90 -1 -1 1019.8 1018.6
09 23.04 ЮВ 1 20 км 10/10 600 м
[Sc]
-0.1 -1.5 90 -2 -2 1019.8 1018.6 +1.8 0.0
12 23.04 З 1 20 км 10/10 600 м
[Sc]
+0.1 -1.8 87 -2 -2 1019.2 1018.0
15 23.04 ЮЗ 1 20 км 10/10 600 м
[Sc]
+0.3 -2.4 82 -2 -2 1018.9 1017.7
18 23.04 штиль 0 20 км 10/10 600 м
[Sc]
-1.0 -2.1 92 -2 -2 1019.0 1017.8
21 23.04 ЮВ 1 20 км 10/10 600 м
[Sc]
+0.2 -3.0 79 -2 -2 1019.0 1017.8 -1.0 56
00 24.04 ЮВ 4 20 км слаб. ливневой снег 10/10 600 м
[Cb cap]
+0.5 -2.6 80 -5 -5 1019.1 1017.9
03 24.04 В 2 20 км {ливн. осадки} 10/10 600 м
[Sc]
+0.4 -2.0 84 -3 -3 1018.6 1017.5
06 24.04 ЮВ 1 20 км {ливн. осадки} 10/10 600 м
[Sc]
0.0 -1.4 90 -2 -2 1018.4 1017.2
09 24.04 штиль 0 20 км 10/10 600 м
[Sc]
-0.4 -1.5 92 -2 -2 1018.8 1017.6 +1.2 0.0
12 24.04 СЗ 1 20 км 10/10 600 м
[Sc]
+1.8 -2.7 72 0 0 1018.7 1017.5
15 24.04 З 2 20 км 10/10 600 м
[Sc]
+1.1 -2.0 80 -2 -2 1018.5 1017.3
18 24.04 ЮВ 3 20 км 10/8 300 м
[Sc As op]
+0.6 -1.8 84 -4 -4 1018.7 1017.5
21 24.04 ЮВ 3 20 км 9/9 300 м
[Sc]
+0.9 -1.2 86 -4 -3 1018.5 1017.3 -0.4 56
00 25.04 ЮВ 4 10 км слаб. ливневой снег 10/10 600 м
[Cb cap]
+0.6 -0.7 91 -5 -5 1018.6 1017.4
03 25.04 ЮВ 4 10 км слаб. ливневой снег 10/10 300 м
[Cb cap]
+0.7 -0.5 92 -5 -5 1017.8 1016.6
06 25.04 ЮВ 3
{10}
20 км {ливн. осадки} 10/10 300 м
[St]
+0.6 -0.4 93 -4 -4 1016.3 1015.1
09 25.04 ЮВ 5 1000 м ливневой снег 10/10 200 м
[Cb cap]
0.0 -0.6 96 -6 -6 1014.5 1013.3 +1.2 2
12 25.04 ЮВ 5
{10}
1000 м ливневой снег {метель} 10/10 200 м
[Cb cap]
-0.1 -0.5 97 -6 -6 1011.7 1010.5
15 25.04 ЮВ 9-11
{11}
1000 м ливневой снег {метель} 10/10 200 м
[Cb cap]
-0.2 -0.5 98 -8 -8 1007.0 1005.8
18 25.04 В 10-13
{13}
1000 м ливневой снег {метель} 10/10 200 м
[Cb cap]
-0.3 -0.6 98 -9 -9 1000.1 999.0
21 25.04 В 13-19
{19}
1000 м ливневой снег {метель} 10/10 200 м
[Cb cap]
-0.1 -0.4 98 -9 -9 989.6 988.5 -0.4 10 66
00 26.04 ЮВ 7
{19}
2000 м ливневой снег {метель} 10/10 200 м
[Cb cap]
+0.1 -0.3 97 -7 -7 982.2 981.1

 

Местоположение метеостанции Мыс Озерной (Камчатский край, Россия): широта 57.65 долгота 163.20 высота над уровнем моря 9 м.

В архиве по умолчанию представлена погода на Мысе Озерном за последнюю неделю. Архивные данные за месяц целиком и за предыдущие месяцы, начиная с января 2011 года, Вы можете получить, выбрав интересующий диапазон дат из раскрывающегося списка и нажав кнопку "Ввод!".


*Определитесь, кто Вы:
робот инопланетянин человек

Внимание! Время в таблицах - всемирное. Для получения местного времени необходимо прибавить поправку, которая равна 12 ч.

Смотрите также архив погоды в соседних городах и на ближайших метеорологических станциях:

Погода в Усть-Камчатске (Камчатский край, Россия) (162 км)
Погода на Мысе Африка (Камчатский край, Россия) (164 км)
Погода в Оссоре (Камчатский край, Россия) (176 км)
Погода в Ключах (Камчатский край, Россия) (207 км)
Погода в Палане (Камчатский край, Россия) (250 км)
Погода в Усть-Воямполке (Камчатский край, Россия) (259 км)
Погода в Козыревске (Камчатский край, Россия) (273 км)
Погода в Тигиле (Камчатский край, Россия) (274 км)
Погода на Острове Беринга (Камчатский край, Россия) (319 км)
Погода в Эссо (Камчатский край, Россия) (334 км)

Пояснения к столбцам:

Ветер - указаны скорость ветра в м/с - средняя за 10 мин, порывы в срок и между сроками (в фигурных скобках) и направление, откуда дует ветер: С - северный, СВ - северо-восточный, В - восточный, ЮВ - юго-восточный, Ю - южный, ЮЗ - юго-западный, З - западный, СЗ - северо-западный.
Видимость - горизонтальная дальность видимости в метрах или километрах. При видимости от 1 до 10 км при отсутствии осадков обычно наблюдается дымка, при ухудшении видимости до 1 км и менее - туман. В сухую погоду видимость может ухудшаться дымом, пылью или мглою.
Явления - указаны атмосферные явления, наблюдавшиеся в срок или в последний час перед сроком; фигурными скобками обозначены явления, наблюдавшиеся между сроками (за 1-3 часа до срока); квадратными скобками обозначены град или гололедные отложения с указанием их диаметра в мм.
Облачность - указаны через наклонную черту общая и нижняя облачность в баллах и высота нижней границы облаков в метрах; квадратными скобками обозначены формы облаков: Ci - перистые, Cs - перисто-слоистые, Cc - перисто-кучевые, Ac - высококучевые, As - высокослоистые, Sc - слоисто-кучевые, Ns - слоисто-дождевые, Cu - кучевые, Cb - кучево-дождевые. Подробнее классификацию облаков см. в Атласе облаков (PDF).
T - Температура воздуха - температура, измеренная на высоте 2 м над землей.
Td - Температура точки росы - температура, при понижении до которой содержащийся в воздухе водяной пар достигнет насыщения.
f - Относительная влажность воздуха - влажноcть воздуха, измеренная на высоте 2 м над землей.
Te - Эффективная температура - температура, которую ощущает одетый по сезону человек в тени. Характеристика душности погоды. При расчете учитывается влияние влажности воздуха и скорости ветра на теплоощущения человека.
Tes - Эффективная температура на солнце - температура, которую ощущает человек, с поправкой на солнечный нагрев. Характеристика знойности погоды. Зависит от высоты солнца над горизонтом, облачности и скорости ветра. Ночью, в пасмурную погоду, а также при ветре 12 м/с и более поправка равна нулю.
P - Атмосферное давление - приведенное к уровню моря атмосферное давление.
Po - Атмосферное давление - измеренное на уровне метеостанции атмосферное давление.
Tmin - Минимальная температура - минимум температуры воздуха на высоте 2 м над землей.
Tmax - Максимальная температура - максимум температуры воздуха на высоте 2 м над землей.
R - Количество осадков - Количество выпавших осадков за период времени, мм. При наведении курсора мыши на число - период времени, за который выпало указанное количество осадков.
R24 - Количество осадков - Количество выпавших осадков за 24 часа, мм.
S - Снежный покров - Высота снежного покрова, см. При наведении курсора мыши на число - состояние снежного покрова и степень покрытия местности в баллах.